Capo Bellavista, Italy

3:58 AM CEST on March 30, 2017 (GMT +0200)
Capo Bellavista

Weather History for LIEB - February, 2014

Change the Weather History Date:

Friday, February 14, 2014

  Actual Average Record
Temperature  
Mean Temperature 62 °F -  
Max Temperature 68 °F 58 °F - ()
Min Temperature 55 °F 47 °F - ()
Degree Days  
Heating Degree Days 4    
Growing Degree Days 12 (Base 50)    
Moisture  
Dew Point 49 °F    
Average Humidity 61    
Maximum Humidity 94    
Minimum Humidity 40    
Precipitation  
Precipitation 0.00 in 0.05 in - ()
Sea Level Pressure  
Sea Level Pressure 29.94 in    
Wind  
Wind Speed 6 mph ()    
Max Wind Speed 13 mph    
Max Gust Speed -    
Visibility 11.6 miles    
Events      
T = Trace of Precipitation, MM = Missing Value Source: Averaged Metar Reports

Daily Weather History Graph

Daily Weather History Graph

Search for Another Location

Airport or City:

Trip Planner

Search our weather history database for the weather conditions in past years. The results will help you decide how hot, cold, wet, or windy it might be!

Date:

Astronomy

Feb. 14, 2014 Rise Set
Actual Time 7:15 AM CET 5:55 PM CET
Civil Twilight 6:47 AM CET 6:23 PM CET
Nautical Twilight 6:15 AM CET 6:55 PM CET
Astronomical Twilight 5:44 AM CET 7:26 PM CET
Moon 5:44 PM CET (2/14) 6:33 AM CET (2/14)
Length of Visible Light 11h 35m
Length of Day
10h 40m
Full, 100% of the Moon is Illuminated
Feb 14
Full
Feb 15
Full
Feb 22
Last Quarter
Mar 1
New
Mar 8
First Quarter

Hourly Weather History & Observations

Time (CET) Temp. Dew Point Humidity Pressure Visibility Wind Dir Wind Speed Gust Speed Precip Events Conditions
12:00 AM 58 °F 49 °F 62% 29.89 in 12 mi East 5.8 mph - -   Mostly Cloudy
12:55 AM 59.0 °F 48.2 °F 67% 29.89 in - West 4.6 mph - N/A   Clear
1:00 AM 59 °F 49 °F 60% 29.89 in 12 mi West 4.6 mph - -   Mostly Cloudy
1:55 AM 60.8 °F 46.4 °F 59% 29.89 in - North 8.1 mph - N/A   Clear
2:00 AM 60 °F 46 °F 50% 29.89 in 12 mi North 8.1 mph - -   Partly Cloudy
3:00 AM 59 °F 46 °F 51% 29.90 in 12 mi SW 5.8 mph - -   Mostly Cloudy
3:55 AM 59.0 °F 44.6 °F 59% 29.89 in - West 4.6 mph - N/A   Clear
4:00 AM 59 °F 45 °F 50% 29.91 in 12 mi West 4.6 mph - -   Mostly Cloudy
4:55 AM 57.2 °F 48.2 °F 72% 29.89 in 6.2 mi SSW 8.1 mph - N/A   Partly Cloudy
5:00 AM 58 °F 48 °F 61% 29.90 in 12 mi SSW 8.1 mph - -   Scattered Clouds
5:55 AM 59.0 °F 50.0 °F 72% 29.89 in 6.2 mi SSW 9.2 mph - N/A   Partly Cloudy
6:00 AM 58 °F 50 °F 67% 29.91 in 12 mi SSW 9.2 mph - -   Scattered Clouds
6:55 AM 57.2 °F 46.4 °F 67% 29.92 in - NW 10.4 mph - N/A   Clear
7:00 AM 57 °F 46 °F 58% 29.93 in 12 mi NW 10.4 mph - -   Partly Cloudy
7:55 AM 57.2 °F 48.2 °F 72% 29.92 in - NW 11.5 mph - N/A   Clear
8:00 AM 57 °F 48 °F 63% 29.93 in 12 mi NW 11.5 mph - -   Scattered Clouds
8:55 AM 59.0 °F 46.4 °F 63% 29.92 in - North 10.4 mph - N/A   Clear
9:00 AM 59 °F 46 °F 53% 29.93 in 12 mi North 10.4 mph - -   Clear
9:55 AM 59.0 °F 44.6 °F 59% 29.92 in - SE 2.3 mph - N/A   Clear
10:00 AM 59 °F 44 °F 46% 29.94 in 12 mi SE 2.3 mph - -   Clear
10:55 AM 62.6 °F 44.6 °F 52% 29.92 in - SE 3.5 mph - N/A   Clear
11:00 AM 62 °F 44 °F 41% 29.94 in 12 mi SE 3.5 mph - -   Clear
11:55 AM 66.2 °F 50.0 °F 56% 29.95 in - SE 5.8 mph - N/A   Clear
12:00 PM 67 °F 49 °F 43% 29.95 in 12 mi SE 5.8 mph - -   Clear
12:55 PM 66.2 °F 48.2 °F 52% 29.95 in - SSE 3.5 mph - N/A   Clear
1:00 PM 67 °F 48 °F 40% 29.95 in 12 mi SSE 3.5 mph - -   Clear
1:55 PM 62.6 °F 48.2 °F 59% 29.95 in - NE 6.9 mph - N/A   Clear
2:00 PM 63 °F 48 °F 48% 29.94 in 12 mi NE 6.9 mph - -   Scattered Clouds
2:55 PM 62.6 °F 53.6 °F 72% 29.92 in - ENE 8.1 mph - N/A   Clear
3:00 PM 62 °F 53 °F 63% 29.94 in 12 mi ENE 8.1 mph - -   Scattered Clouds
3:55 PM 60.8 °F 55.4 °F 82% 29.95 in - East 5.8 mph - N/A   Clear
4:00 PM 61 °F 56 °F 77% 29.94 in 12 mi East 5.8 mph - -   Scattered Clouds
4:55 PM 66.2 °F 53.6 °F 64% 29.95 in - ENE 2.3 mph - N/A   Clear
5:00 PM 65 °F 54 °F 60% 29.94 in 12 mi ENE 2.3 mph - -   Clear
5:55 PM 62.6 °F 50.0 °F 63% 29.95 in - NNE 5.8 mph - N/A   Clear
6:00 PM 62 °F 50 °F 54% 29.96 in 12 mi NNE 5.8 mph - -   Clear
6:55 PM 60.8 °F 44.6 °F 55% 29.95 in - NNW 5.8 mph - N/A   Clear
7:00 PM 61 °F 45 °F 45% 29.96 in 12 mi NNW 5.8 mph - -  
7:55 PM 59.0 °F 48.2 °F 67% 29.98 in - WNW 8.1 mph - N/A   Clear
8:00 PM 59 °F 49 °F 60% 29.97 in 12 mi WNW 8.1 mph - -  
8:55 PM 60.8 °F 48.2 °F 63% 29.98 in - WNW 4.6 mph - N/A   Clear
9:00 PM 60 °F 48 °F 54% 29.97 in 12 mi WNW 4.6 mph - -  
9:55 PM 57.2 °F 55.4 °F 94% 29.98 in - NNE 11.5 mph - N/A   Clear
10:00 PM 57 °F 55 °F 90% 29.99 in 12 mi NNE 11.5 mph - -  
10:55 PM 57.2 °F 50.0 °F 77% 29.98 in - NNE 12.7 mph - N/A   Clear
11:00 PM 56 °F 49 °F 72% 30.00 in 12 mi NNE 12.7 mph - -  
11:55 PM 57.2 °F 46.4 °F 67% 29.98 in - North 12.7 mph - N/A   Clear